Regional Weather Roundup
Issued by NWS

Home | Current Version | Previous Version | Graphics & Text | Print | Product List | Glossary On
Versions: 1 2 3 4 5 6 7 8 9 10 11 12 13 14 15 16 17 18 19 20 21 22 23 24 25 26 27 28 29 30 31 32 33 34 35 36 37 38 39 40 41 42 43 44 45 46 47 48 49 50
000
ASUS43 KBIS 240910
RWRND

NORTH DAKOTA REGIONAL WEATHER ROUNDUP
NATIONAL WEATHER SERVICE BISMARCK ND
400 AM CDT SUN MAY 24 2015

NOTE: "FAIR" INDICATES FEW OR NO CLOUDS BELOW 12,000 FEET WITH NO
SIGNIFICANT WEATHER AND/OR OBSTRUCTIONS TO VISIBILITY.


NDZ001>003-009>011-017-241000-
NORTHWEST NORTH DAKOTA

CITY           SKY/WX    TMP DP  RH WIND       PRES   REMARKS
WILLISTON      PTCLDY    45  40  82 N5        30.09F
MINOT          PTCLDY    51  45  79 SW5       30.09S
MINOT AFB      PTCLDY    46  46  99 SW2       30.08S
$$

NDZ018>021-031>035-040>046-241000-
SOUTHWEST NORTH DAKOTA

CITY           SKY/WX    TMP DP  RH WIND       PRES   REMARKS
BISMARCK       CLOUDY    56  52  86 CALM      30.09S
DICKINSON      MOCLDY    46  44  93 NE5       30.07S FOG
GARRISON         N/A     54  48  80 NE3       30.09F
HETTINGER ARPT MOCLDY    48  45  89 E8        30.07F
$$

NDZ004>008-012>016-024-026-027-054-241000-
NORTHEAST NORTH DAKOTA

CITY           SKY/WX    TMP DP  RH WIND       PRES   REMARKS
GRAND FORKS    CLEAR     47  44  90 CALM      30.10R
GRND FRKS AFB  CLEAR     46  43  91 CALM      30.10R
DEVILS LAKE    PTCLDY    48  43  81 CALM      30.10S
$$

NDZ022-023-025-028>030-036>039-047>053-241000-
SOUTHEAST NORTH DAKOTA

CITY           SKY/WX    TMP DP  RH WIND       PRES   REMARKS
FARGO          PTCLDY    50  47  89 E5        30.08F
JAMESTOWN      PTCLDY    53  50  89 E5        30.08F
$$



USA.gov is the U.S. government's official web portal to all federal, state and local government web resources and services.